Location: Bjelajci
(45.0103°N, 16.1758°E)
Time: 04:07:29
(UTC+00:00)

Cosmos 1500 - Pass Details

Date: 14 July 2020
Orbit: 498 x 520 km, 82.5° (Epoch: 11 August)

Event Time Altitude Azimuth Distance (km) Brightness Sun altitude
Exits shadow 00:58:27 47° 223° (SW) 688 3.3 -18.2°
Maximum altitude 00:59:20 63° 280° (W) 575 3.2 -18.1°
Drops below altitude 10° 01:03:06 10° 2° (N) 1,736 6.8 -17.8°
Sets 01:05:15 0° 6° (N) 2,623 8.0 -17.6°
